Hourly Data Report for October 05, 2014

All times are specified in Local Standard Time (LST). Add 1 hour to adjust for Daylight Saving Time where and when it is observed.

GRISE FIORD CLIMATE
NUNAVUT

76°25'22.040" N
82°54'08.020" W
44.50 m
2402351
71971
NGC

Download Data

Hourly Data (October 2014)
Hourly Data Report for October 5, 2014
Temp Definition
°C
Dew Point Temp Definition
°C
Rel Hum Definition
%
Wind Dir Definition
10's deg

Wind Spd Definition
km/h
Visibility Definition
km
Stn Press Definition
kPa
Hmdx Definition


Wind Chill Definition


Weather Definition


TIME
00:00 -4.9 -11.0 63 20 4   101.66   -7 LegendNANA
01:00 -4.8 -11.6 59 27 12   101.73   -10 LegendNANA
02:00 -5.4 -11.3 63 25 19   101.77   -12 LegendNANA
03:00 -5.6 -10.1 71 16 14   101.84   -11 LegendNANA
04:00 -6.4 -10.8 71 14 12   101.92   -12 LegendNANA
05:00 -5.8 -12.8 58 7 7   101.98   -9 LegendNANA
06:00 -5.6 -12.7 57 10 6   102.07   -8 LegendNANA
07:00 -6.6 -13.4 59 4 11   102.11   -12 LegendNANA
08:00 -6.2 -12.1 63 7 2   102.16   -7 LegendNANA
09:00 -6.5 -12.8 61 3 6   102.23   -9 LegendNANA
10:00 -7.2 -11.6 71 11 3   102.27   -9 LegendNANA
11:00 -5.9 -11.2 66 11 4   102.30   -8 LegendNANA
12:00 -5.1 -10.9 64 8 3   102.36   -6 LegendNANA
13:00 -4.5 -10.2 64 22 4   102.43   -6 LegendNANA
14:00 -5.0 -10.1 67 8 3   102.48   -6 LegendNANA
15:00 -5.2 -11.5 61 3 5   102.55   -7 LegendNANA
16:00 -5.6 -10.3 69 7 2   102.64   -7 LegendNANA
17:00 -6.3 -10.6 71 8 3   102.69   -8 LegendNANA
18:00 -7.1 -11.4 72 7 5   102.72   -10 LegendNANA
19:00 -6.8 -11.7 68 4 5   102.78   -9 LegendNANA
20:00 -7.0 -10.0 79 4 3   102.80   -9 LegendNANA
21:00 -6.8 -10.1 77 5 4   102.83   -9 LegendNANA
22:00 -6.4 -9.7 78 4 7   102.86   -10 LegendNANA
23:00 -6.3 -9.2 80 6 6   102.87   -9 LegendNANA

Notes on Data Quality.

Legend

  • E = Estimated
  • M = Missing
  • NA = Not Available
  • ‡ = Partner data that is not subject to review by the National Climate Archives
Date modified: